Starlink 5138

operational
NORAD ID: 54078 Int'l Des: 2022-136 Owner: SPXS Country: US Constellation: starlink
LEOCIRCULAR

Über Starlink 5138

Beschreibung wird geladen...

Live-Position

3D-Globus wird geladen...

Nächste Überflüge

Höhenverlauf

Altitude vs Time

uPlot chart will show altitude changes over time

Zweizeiliger Elementsatz

1 54078U 22136AD 25306.50002315 .01058013 00000-0 45051-2 0 9995
2 54078 53.2148 162.3675 0000773 132.3077 220.2761 15.82371728 5918
Epoch: 2. Nov. 2025 • Age: 20 hours

Aktueller Status

Höhe 325.2 km
Geschwindigkeit 7.72 km/s
Subsatellitenpunkt 52.73°N, 71.9°E
Startdatum 20. Okt. 2022
Alter 3 years
Typ internet

Technische Details

Klassifizierung Payload
Masse 305.00 kg
Trockenmasse 290.00 kg
Gesamtmasse 305.00 kg
Länge 0.20 m
Durchmesser 2.80 m
Spannweite 9.00 m
Form Box + pan
Hersteller SPXS
Bus-Typ Starlink
Phasenstatus In Orbit
Besitzer/Staat SPXS/US

Große Konstellationen

Loading constellations...